Tracking 19280 objects as of 13-Nov-2018
HD Live streaming from Space Station
objects crossing your sky now

FLOCK 3P 81

Track FLOCK 3P 81 now!
10-day predictions
FLOCK 3P 81 is classified as:


NORAD ID: 42043
Int'l Code: 2017-008CZ
Perigee: 492.9 km
Apogee: 503.9 km
Inclination: 97.4 °
Period: 94.4 minutes
Semi major axis: 6869 km
RCS: Unknown
Launch date: February 15, 2017
Source: United States (US)
Launch site: SRIHARIKOTA (SRI)
aabbcc
Your satellite tracking list
Your tracking list is empty




NASA's NSSDC Master Catalog

Two Line Element Set (TLE):
1 42043U 17008CZ  18316.91174686 +.00001554 +00000-0 +65446-4 0  9994
2 42043 097.4371 021.0904 0008064 183.3590 176.7595 15.24841404095950
Source of the keplerian elements: AFSPC